Location: Unspecified
(49.2170°N, 0.0000°E)
Time: 21:35:31
(UTC+00:00)

A-11 Canister half - Pass Details

Date: 23 June 2019
Orbit: 1526 x 1683 km, 47.3° (Epoch: 19 July)

Event Time Altitude Azimuth Distance (km) Brightness Sun altitude
Rises 10:40:20 0° 289° (WNW) 4,683 11.3 59.6°
Reaches altitude 10° 10:43:42 10° 281° (W) 3,696 10.9 60.0°
Maximum altitude 10:51:45 35° 220° (SW) 2,289 10.6 60.7°
Drops below altitude 10° 10:59:54 10° 159° (SSE) 3,728 11.7 61.5°
Sets 11:03:19 0° 151° (SSE) 4,729 12.0 61.7°
